User: anonymous   Login
Location: Unspecified
(0.0000°N, 0.0000°E)
Time: 00:45:57
(UTC+00:00)
Language:

TBA - TO BE ASSIGNED - Orbit

View from above orbital plane
View from above orbital plane
View from above satellite
View from above satellite

Ground track
Ground track

The orbit is defined by the following mean orbital elements,

1 67976U          26145.44529760 +.00000000 +00000-0 +71333-3 0 00003
2 67976  97.2855 155.4901 0001184   1.3399 358.7846 15.33451155    01
Epoch (UTC): 25 May 2026 10:41:13
Eccentricity: 0.0001184
inclination: 97.2855°
perigee height: 465 km
apogee height: 466 km
right ascension of ascending node: 155.4901°
argument of perigee: 1.3399°
revolutions per day: 15.33451155
mean anomaly at epoch: 358.7846°

The dashed part of the orbit path shows where the satellite is in the earth's shadow,  

DLR